{"data":{"norad_id":55758,"intl_designator":"2023-028T","name":"STARLINK-5072","alt_names":[],"object_type":"PAYLOAD","status":"ACTIVE","operator":null,"country":"US","launch_date":"2023-03-03","launch_site_code":"AFWTR","launch_vehicle":null,"mission":null,"orbit_class":"UNKNOWN","rcs_meters":null,"size_class":null,"mass_kg":null,"dimensions":null,"purposes":["comms"],"wikipedia_slug":null,"has_3d_model":false,"image_url":null,"decayed_at":null,"tle_current":{"epoch":"2026-05-25T03:14:03.551712Z","epoch_age_seconds":64225,"freshness":"FRESH","line1":"1 55758U 23028T   26145.13476333 -.00000136  00000+0 -35971-5 0  9994","line2":"2 55758  70.0005  51.6036 0002730 269.4156  90.6690 14.98327676177491","mean_motion":14.98327676,"eccentricity":0.000273,"inclination_deg":70.0005,"raan_deg":51.6036,"arg_perigee_deg":269.4156,"mean_anomaly_deg":90.669,"bstar":-3.5971e-6,"rev_number":17749,"period_min":96.107148193664,"perigee_km":570.16567311078,"apogee_km":573.96048235322,"semimajor_km":6950.200077732,"source":"CELESTRAK","updated_at":"2026-05-25T13:38:17.881055Z"}}}